Wind_Speed
4 4 4 4 4 4 4 4 4 4 4 4 4 3 3 3 3 3 2 2 1 1 2 2 2 2 2 2 2 2 2 2 2 2 1 1 2 3 4 4 4 5 5 5 6 5 5 5 4
5 4 4 4 5 4 4 4 4 4 5 4 4 4 3 3 3 2 2 3 3 3 3 2 2 2 2 2 2 3 3 1 2 2 2 2 2 3 4 4 5 5 5 6 7 7 7 7 7
5 5 4 4 4 4 4 5 4 4 5 4 4 3 3 3 2 2 3 3 3 4 4 3 3 3 3 3 3 3 3 1 1 3 3 3 4 4 4 4 5 6 6 6 7 8 8 8 8
5 5 4 4 4 4 5 5 4 4 4 4 3 3 2 3 3 2 3 3 4 4 4 4 3 3 3 3 4 4 3 2 2 3 4 4 4 4 5 5 5 6 6 7 8 8 9 9 8
5 5 4 4 4 3 4 4 4 4 4 3 3 2 2 2 2 3 3 4 4 4 4 4 4 4 4 4 4 4 3 3 3 3 4 4 5 5 5 5 6 6 7 8 9 9 9 8 8
6 5 5 4 3 3 3 3 4 3 3 4 3 3 2 2 3 3 4 4 4 4 4 4 4 4 5 5 5 5 4 4 4 4 4 5 6 5 6 6 6 6 7 7 8 9 8 8 9
6 6 5 5 4 4 4 3 3 3 3 3 3 3 3 3 3 4 4 4 5 5 4 4 4 4 5 5 5 5 5 5 5 5 5 6 6 6 6 7 7 8 8 8 8 9 9 9 9
7 6 6 6 5 5 4 4 3 3 3 3 3 3 3 3 3 4 4 5 5 5 5 5 5 5 5 6 5 5 5 5 5 5 6 6 6 6 7 8 8 8 9 9 9 9 9 9 9
7 7 6 6 6 5 5 5 4 4 4 3 2 2 3 3 3 3 4 5 5 5 6 6 6 6 6 6 6 6 6 6 6 6 6 7 7 8 8 8 9 9 9 9 9 10 10 10 10
6 7 7 7 6 6 6 5 5 4 4 3 3 3 3 3 4 4 4 5 5 5 6 6 6 6 6 6 6 5 5 5 6 6 6 7 7 8 9 10 10 10 10 10 10 11 11 11 11
7 7 7 6 6 7 6 5 5 5 4 4 3 3 3 3 4 4 4 5 5 6 5 5 6 6 6 6 6 5 5 5 6 6 7 8 9 9 10 10 10 10 10 10 11 11 11 11 11
7 7 7 6 6 6 6 6 6 5 5 4 4 3 3 4 5 5 4 4 4 5 5 5 5 5 5 5 5 6 6 7 7 7 8 9 9 10 11 11 10 10 10 10 10 11 10 10 10
8 8 8 7 6 6 6 6 6 6 5 5 4 4 4 4 5 5 5 5 5 5 4 5 5 5 5 5 5 6 6 7 8 8 8 9 10 10 11 10 11 11 10 10 11 10 10 10 10
9 8 8 8 7 7 7 7 7 6 6 5 5 5 5 5 5 5 4 4 5 5 5 5 5 5 6 6 6 7 7 7 8 8 9 9 10 10 10 10 10 11 11 11 11 10 10 10 11
10 9 9 9 8 7 7 7 7 7 6 6 6 5 5 5 5 5 5 5 5 5 5 5 5 5 6 7 7 8 8 8 8 8 9 9 10 10 10 10 9 10 10 11 11 10 10 10 11
11 11 10 9 9 8 8 8 8 8 7 7 7 6 6 6 6 6 6 6 6 6 6 6 6 6 6 7 7 8 8 8 8 9 9 9 10 10 10 10 10 10 10 10 10 10 11 11 11
12 12 10 9 9 9 9 9 9 8 8 8 8 7 7 7 6 6 7 7 7 7 7 7 7 7 7 7 7 8 8 8 9 9 10 10 10 10 10 11 11 11 11 10 10 10 10 10 11
12 12 11 10 10 10 10 10 10 9 9 9 9 8 8 8 7 7 8 8 8 8 8 8 8 8 8 8 8 9 9 9 10 9 10 10 11 11 11 11 11 11 11 11 11 11 11 11 11
13 13 12 12 12 12 12 11 10 10 10 10 10 9 9 9 9 9 9 9 9 9 9 9 8 8 9 9 9 9 10 10 10 10 11 12 12 12 12 11 12 12 12 12 12 11 11 11 12
14 13 12 12 13 12 12 11 11 11 11 11 10 10 10 10 10 10 9 9 9 9 9 9 9 9 9 10 10 10 10 10 11 11 12 13 13 13 12 12 12 12 12 12 12 12 12 12 12
14 14 12 12 13 13 13 12 12 12 12 11 11 11 11 10 10 10 10 10 10 10 11 11 10 10 10 11 11 11 11 11 12 12 13 13 12 12 13 12 12 12 13 13 12 12 13 13 13
15 14 14 14 13 13 14 13 13 13 12 12 12 11 11 11 11 11 10 11 11 11 12 12 12 12 12 12 12 12 12 13 13 13 13 13 12 12 13 13 13 13 14 14 13 13 13 13 14
16 15 15 14 14 14 14 14 13 13 12 13 12 12 12 12 11 11 11 12 12 12 12 12 12 12 12 12 13 13 13 13 13 13 12 12 13 13 14 14 14 14 14 15 14 14 14 14 15
16 15 15 15 15 15 14 14 13 13 13 13 13 12 12 12 12 12 12 12 12 12 12 12 12 12 12 13 13 13 14 14 14 13 13 13 13 14 15 15 16 15 15 15 15 15 16 15 16
17 16 16 16 17 16 14 15 14 13 14 14 13 12 12 13 13 13 12 12 12 12 12 12 12 13 13 13 14 14 14 14 15 15 14 14 15 15 15 16 16 16 16 16 16 16 17 17 16
17 17 17 18 17 16 15 15 14 14 14 13 13 13 13 13 13 13 13 13 13 13 13 13 13 14 14 15 15 15 15 15 15 16 16 16 16 16 16 17 17 17 17 17 17 17 17 17 17
17 17 17 17 17 17 16 15 14 14 14 14 14 14 14 14 14 14 15 14 14 14 13 14 14 15 16 16 17 17 16 16 16 17 17 18 18 18 18 18 18 18 18 18 19 19 19 18 18
18 17 17 18 17 17 17 16 15 15 15 15 15 15 16 16 16 16 16 15 15 15 15 16 16 16 17 18 18 18 17 18 18 18 18 19 20 20 20 20 19 19 19 19 20 20 19 19 19
17 18 19 18 18 18 17 16 16 16 16 16 16 16 16 17 17 17 17 17 16 16 17 17 17 18 18 18 18 19 19 19 19 19 20 20 20 21 21 21 21 20 19 19 19 19 19 19 18
18 19 19 19 19 19 18 17 17 17 17 16 16 17 17 17 17 17 17 18 18 18 18 18 18 18 19 19 19 19 19 19 20 20 21 21 21 21 21 21 21 20 19 18 19 19 19 19 19
Wind_Direction
225 223 228 232 235 235 230 225 219 222 217 207 209 216 223 224 237 234 235 246 252 282 306 337 3 5 16 40 33 10 333 280 231 197 177 172 210 222 225 233 239 249 251 251 258 263 271 264 263
233 231 235 243 246 241 233 229 225 229 219 211 213 220 219 224 232 229 243 257 263 267 281 300 319 332 342 358 3 3 352 310 210 214 223 235 244 235 233 240 250 253 257 262 264 264 270 272 273
232 233 240 247 247 244 236 232 231 230 227 227 223 223 229 227 224 234 254 261 265 272 275 274 278 301 310 320 328 341 350 334 224 233 245 255 263 259 255 251 252 254 259 264 267 265 268 268 272
231 235 240 246 249 248 242 224 216 217 222 222 221 221 231 228 222 238 258 267 268 275 274 267 263 272 284 297 306 310 318 310 265 244 248 254 259 269 270 265 263 257 259 265 270 269 269 267 267
235 236 243 241 243 253 236 211 204 214 214 215 219 217 228 228 221 234 257 269 269 270 272 268 265 265 271 278 287 297 295 294 284 266 261 256 260 264 265 268 270 269 265 269 271 275 274 269 268
242 247 241 235 236 235 234 215 203 206 217 217 219 224 230 242 233 238 251 266 271 268 275 269 271 268 270 275 278 278 277 279 280 277 264 265 266 269 267 266 271 275 275 271 271 278 276 271 274
243 244 245 244 240 239 233 225 224 220 209 207 216 223 240 255 248 244 249 256 265 263 265 261 269 270 273 277 277 273 274 274 272 271 264 265 265 262 260 265 271 275 276 277 277 277 280 277 275
241 244 247 247 242 240 237 230 233 227 210 211 218 233 243 251 253 248 252 256 262 258 251 257 263 270 275 277 277 276 276 275 270 266 265 265 262 260 258 264 268 275 276 278 280 279 282 280 276
243 242 246 247 243 239 235 230 230 228 215 216 228 245 250 253 257 255 256 255 256 257 256 261 265 270 273 275 274 271 272 272 269 266 266 266 268 267 265 265 265 267 271 276 277 277 278 278 277
243 244 247 247 242 239 236 234 226 228 223 221 226 237 248 255 257 255 259 261 260 259 255 257 259 262 266 271 274 274 271 270 268 270 268 269 271 271 270 270 272 273 276 274 275 278 278 277 277
243 244 244 246 243 241 238 234 229 223 215 220 230 241 253 264 263 257 257 261 262 263 265 259 255 259 262 266 270 268 271 274 275 274 274 276 273 273 276 275 275 274 276 274 274 278 277 278 279
242 242 240 240 244 243 241 238 235 226 222 230 240 251 258 264 264 256 253 258 263 264 261 264 262 263 265 270 276 275 275 275 276 276 278 280 279 277 276 275 277 277 278 274 272 276 278 279 279
237 235 233 234 239 243 243 240 238 232 237 242 247 257 266 262 260 254 253 256 263 267 264 263 264 263 263 268 276 280 281 280 274 276 279 281 281 278 277 274 274 275 276 275 272 273 275 276 277
231 230 230 235 239 241 241 241 238 236 239 243 246 254 259 258 258 254 253 257 263 264 263 261 261 264 267 275 281 281 282 281 276 277 278 277 279 281 281 276 274 275 277 278 276 275 275 276 277
232 232 234 236 239 241 242 241 239 239 239 243 245 249 251 251 254 252 253 258 261 261 263 264 265 270 274 278 279 280 281 280 279 281 281 281 280 281 279 277 275 276 277 279 280 278 275 274 277
232 236 236 236 240 241 241 241 242 243 242 243 245 246 247 249 251 252 251 254 258 261 264 266 268 271 275 279 281 282 281 281 283 286 286 286 284 282 276 275 275 276 277 278 278 276 274 274 276
234 239 237 237 242 244 242 242 244 244 246 246 247 248 249 250 252 256 256 256 258 263 267 268 270 271 273 278 280 281 280 282 285 287 287 286 286 283 278 276 275 276 276 277 278 276 274 275 277
236 238 241 241 243 242 242 242 241 244 248 248 249 248 250 253 258 264 263 262 262 265 268 268 270 272 274 278 281 282 280 283 285 287 286 286 286 282 278 279 279 276 274 275 277 278 276 275 277
238 240 242 244 243 244 244 241 240 245 245 246 247 246 250 253 259 266 268 269 269 268 268 270 272 275 277 281 284 285 283 283 283 285 285 286 288 288 280 277 277 275 274 274 275 276 277 277 277
240 241 242 244 244 244 243 244 245 248 248 248 246 245 247 253 259 266 271 272 270 268 269 271 272 276 279 280 283 289 289 286 286 287 288 288 287 287 283 278 274 275 275 275 274 275 274 276 276
241 245 245 243 240 246 248 246 249 250 251 250 248 248 248 253 260 264 268 271 271 270 269 269 271 274 276 279 282 287 289 288 287 285 287 287 284 282 282 280 276 274 273 273 274 274 273 274 277
241 243 245 246 248 249 250 250 248 252 252 249 249 249 249 253 259 264 268 273 272 269 269 268 271 274 277 280 283 285 287 289 288 285 284 284 283 283 284 281 279 276 274 272 270 271 272 274 276
241 240 243 247 251 251 250 250 246 251 253 252 251 251 253 257 259 264 269 272 271 269 270 270 273 274 276 279 283 286 288 290 289 288 287 285 284 285 287 285 283 279 276 273 269 268 270 274 276
239 240 243 247 249 250 249 252 249 250 254 254 253 252 254 256 258 262 268 272 273 270 270 271 275 275 278 281 283 285 288 288 287 286 285 286 288 286 288 287 282 279 274 273 271 270 270 273 276
239 239 243 247 249 249 249 252 251 251 255 256 256 255 256 257 260 264 270 273 275 272 273 274 275 277 280 282 285 286 286 286 285 285 284 286 287 287 287 287 285 283 276 273 270 271 272 273 275
239 239 243 250 253 254 253 254 253 253 255 256 257 258 261 263 263 265 268 273 274 273 273 275 276 278 280 282 285 285 284 285 284 284 284 284 287 288 287 287 286 284 281 276 271 269 272 273 274
241 241 245 250 253 254 255 254 252 254 252 252 256 261 265 268 266 265 268 271 271 273 276 277 278 280 282 284 284 285 283 284 285 286 286 286 287 287 287 287 286 285 282 277 272 268 270 271 273
245 247 246 249 255 257 256 254 254 254 254 254 256 260 265 268 268 267 269 271 270 272 277 280 280 281 284 285 285 284 284 284 284 284 285 285 285 285 286 286 287 285 281 276 272 269 269 272 274
244 247 249 251 256 261 262 260 261 258 258 257 258 260 263 268 269 269 269 270 269 272 276 281 282 281 283 284 283 282 282 282 283 284 285 285 284 284 283 284 285 287 281 277 273 270 270 271 272
246 250 252 254 256 260 265 263 262 260 258 258 259 261 263 266 268 268 268 268 269 271 275 278 282 283 282 282 281 280 280 281 283 283 285 284 285 285 285 284 285 285 283 280 276 271 270 271 271
Height
5849 5850 5851 5853 5854 5854 5854 5855 5855 5856 5856 5857 5857 5858 5858 5859 5860 5863 5861 5860 5860 5860 5860 5860 5859 5858 5857 5856 5856 5855 5854 5852 5853 5857 5859 5860 5862 5863 5863 5864 5865 5865 5866 5866 5867 5867 5867 5867 5867
5849 5850 5852 5853 5853 5853 5854 5854 5855 5855 5856 5856 5857 5857 5858 5858 5859 5859 5859 5860 5860 5860 5860 5860 5859 5859 5858 5857 5857 5855 5852 5850 5852 5856 5858 5860 5861 5862 5863 5863 5864 5864 5865 5865 5866 5866 5866 5866 5866
5848 5850 5852 5852 5852 5853 5853 5853 5854 5854 5855 5855 5856 5857 5857 5858 5858 5858 5859 5859 5859 5859 5860 5859 5859 5859 5858 5858 5857 5856 5854 5853 5854 5856 5858 5860 5861 5861 5862 5862 5863 5863 5864 5864 5865 5865 5865 5865 5865
5848 5850 5851 5851 5851 5852 5852 5853 5853 5854 5854 5855 5856 5856 5856 5857 5857 5858 5858 5858 5858 5859 5859 5859 5859 5858 5858 5858 5857 5857 5856 5856 5856 5857 5858 5859 5860 5861 5861 5861 5862 5862 5863 5863 5863 5863 5864 5864 5864
5848 5849 5850 5850 5850 5851 5851 5852 5853 5853 5854 5854 5855 5856 5856 5857 5857 5857 5857 5857 5858 5858 5858 5858 5858 5858 5858 5858 5857 5857 5856 5857 5857 5857 5858 5858 5859 5860 5860 5860 5861 5861 5861 5862 5862 5862 5862 5862 5862
5847 5848 5849 5849 5850 5850 5851 5851 5852 5853 5853 5854 5854 5855 5855 5856 5856 5856 5856 5857 5857 5857 5857 5857 5857 5857 5857 5857 5857 5857 5857 5857 5857 5857 5857 5857 5858 5858 5859 5859 5859 5860 5860 5860 5860 5860 5860 5860 5861
5847 5847 5848 5849 5849 5850 5851 5851 5852 5852 5852 5853 5854 5854 5854 5854 5855 5855 5855 5856 5856 5856 5856 5856 5856 5856 5856 5856 5856 5856 5856 5856 5856 5856 5856 5856 5857 5857 5858 5858 5858 5858 5859 5859 5859 5858 5858 5859 5859
5845 5847 5847 5848 5849 5849 5850 5850 5851 5851 5852 5853 5853 5853 5853 5854 5854 5854 5855 5855 5855 5855 5855 5855 5855 5855 5855 5855 5855 5855 5855 5855 5855 5855 5855 5855 5856 5856 5856 5857 5857 5857 5857 5857 5857 5857 5857 5857 5857
5844 5846 5846 5847 5848 5849 5849 5849 5850 5850 5851 5852 5852 5853 5853 5853 5853 5853 5854 5854 5854 5854 5854 5854 5854 5854 5854 5854 5854 5854 5854 5854 5854 5854 5854 5854 5854 5854 5855 5855 5855 5855 5855 5855 5855 5855 5855 5855 5855
5843 5844 5845 5846 5847 5847 5848 5848 5849 5850 5850 5851 5851 5852 5852 5852 5852 5852 5852 5852 5852 5852 5852 5853 5853 5853 5853 5853 5853 5853 5853 5853 5852 5852 5853 5853 5853 5853 5853 5853 5853 5853 5853 5853 5853 5853 5853 5853 5853
5841 5843 5844 5844 5845 5846 5847 5847 5848 5849 5850 5850 5851 5851 5851 5851 5851 5851 5851 5851 5851 5851 5851 5851 5851 5852 5852 5852 5851 5851 5851 5851 5851 5851 5851 5851 5851 5851 5851 5851 5851 5851 5851 5851 5851 5851 5851 5851 5851
5840 5841 5842 5843 5844 5845 5845 5846 5847 5848 5849 5849 5849 5849 5850 5850 5850 5850 5850 5850 5850 5850 5850 5850 5850 5850 5850 5850 5850 5850 5850 5850 5850 5850 5849 5849 5849 5849 5848 5848 5848 5848 5848 5848 5848 5849 5848 5848 5848
5839 5840 5841 5842 5843 5844 5844 5845 5846 5847 5847 5848 5848 5848 5848 5848 5848 5848 5849 5849 5849 5849 5849 5849 5849 5849 5849 5849 5849 5848 5848 5848 5848 5848 5847 5847 5847 5847 5846 5846 5846 5846 5846 5846 5846 5846 5846 5846 5846
5838 5839 5840 5840 5841 5842 5843 5844 5845 5845 5846 5846 5847 5847 5847 5847 5847 5847 5847 5847 5847 5847 5847 5847 5847 5847 5848 5847 5847 5847 5846 5846 5846 5845 5845 5845 5845 5845 5844 5844 5844 5844 5844 5844 5844 5844 5844 5844 5844
5836 5837 5839 5839 5840 5841 5842 5843 5843 5844 5845 5845 5845 5846 5846 5845 5846 5846 5846 5846 5846 5846 5846 5846 5846 5846 5846 5846 5845 5845 5844 5844 5843 5843 5843 5843 5842 5842 5842 5842 5842 5842 5842 5841 5841 5842 5842 5842 5841
5834 5836 5837 5838 5838 5839 5842 5842 5842 5842 5843 5843 5844 5844 5844 5844 5844 5844 5844 5844 5845 5845 5845 5845 5845 5844 5844 5844 5843 5843 5842 5842 5842 5841 5841 5840 5840 5840 5840 5839 5839 5839 5839 5839 5839 5839 5839 5839 5839
5832 5833 5835 5836 5837 5837 5839 5839 5840 5840 5841 5842 5842 5842 5842 5842 5843 5843 5843 5843 5843 5843 5843 5843 5843 5843 5842 5842 5841 5841 5840 5840 5840 5839 5838 5838 5837 5837 5837 5837 5837 5837 5837 5837 5837 5837 5837 5836 5836
5830 5831 5832 5834 5834 5835 5836 5837 5838 5838 5839 5840 5840 5840 5840 5841 5841 5841 5841 5841 5841 5841 5841 5840 5840 5840 5840 5840 5839 5839 5838 5838 5837 5837 5836 5835 5835 5835 5834 5834 5834 5834 5834 5834 5834 5834 5834 5834 5833
5828 5829 5830 5831 5832 5833 5834 5835 5836 5836 5837 5838 5838 5838 5838 5839 5839 5838 5839 5838 5838 5838 5838 5838 5838 5838 5838 5837 5837 5836 5835 5835 5834 5834 5833 5832 5832 5832 5831 5831 5831 5830 5830 5831 5831 5831 5831 5831 5830
5825 5826 5827 5829 5829 5830 5831 5832 5833 5834 5834 5835 5836 5836 5836 5836 5836 5836 5836 5836 5836 5836 5836 5836 5835 5835 5835 5834 5834 5833 5832 5832 5831 5831 5830 5829 5829 5828 5828 5828 5827 5827 5827 5827 5827 5827 5827 5827 5827
5822 5824 5825 5826 5827 5827 5829 5830 5831 5831 5832 5833 5833 5833 5833 5834 5834 5834 5833 5833 5833 5833 5833 5833 5833 5832 5832 5831 5831 5830 5830 5829 5828 5828 5827 5826 5825 5825 5824 5824 5824 5823 5823 5823 5824 5824 5824 5824 5824
5819 5821 5822 5823 5824 5825 5826 5827 5828 5828 5829 5830 5830 5831 5831 5831 5831 5831 5831 5831 5830 5830 5830 5829 5829 5829 5829 5828 5828 5827 5826 5826 5825 5824 5823 5822 5822 5821 5821 5820 5820 5819 5819 5819 5819 5820 5820 5820 5820
5816 5818 5819 5819 5820 5822 5823 5824 5826 5826 5826 5827 5827 5828 5828 5828 5828 5828 5828 5827 5827 5826 5826 5826 5825 5825 5825 5825 5824 5824 5823 5822 5821 5820 5820 5819 5819 5818 5817 5817 5816 5816 5815 5815 5815 5815 5815 5816 5815
5813 5814 5815 5816 5817 5819 5820 5821 5823 5823 5823 5824 5824 5824 5825 5825 5825 5825 5825 5824 5824 5823 5823 5822 5822 5822 5821 5821 5820 5820 5819 5818 5817 5817 5816 5816 5815 5814 5813 5813 5812 5811 5811 5811 5811 5811 5811 5811 5811
5809 5811 5812 5812 5813 5815 5816 5817 5819 5820 5820 5820 5821 5821 5821 5822 5822 5822 5821 5821 5820 5820 5819 5819 5818 5818 5818 5817 5816 5815 5815 5814 5814 5813 5812 5812 5811 5810 5810 5809 5808 5807 5806 5806 5806 5806 5806 5806 5806
5805 5807 5809 5809 5810 5812 5812 5813 5816 5816 5816 5816 5817 5817 5818 5818 5818 5818 5817 5817 5817 5816 5816 5815 5815 5814 5814 5813 5812 5811 5811 5810 5809 5809 5808 5808 5807 5806 5805 5804 5803 5802 5802 5801 5801 5801 5801 5801 5801
5801 5802 5804 5806 5806 5807 5808 5810 5811 5812 5812 5813 5813 5814 5814 5814 5814 5814 5814 5813 5813 5812 5812 5811 5811 5810 5809 5809 5808 5807 5806 5805 5805 5804 5804 5803 5802 5801 5800 5799 5798 5798 5797 5796 5796 5796 5795 5795 5795
5798 5799 5800 5801 5801 5803 5804 5806 5807 5808 5808 5809 5809 5810 5810 5810 5810 5810 5809 5809 5809 5808 5807 5807 5806 5805 5804 5803 5802 5802 5801 5800 5800 5799 5799 5798 5797 5796 5795 5794 5793 5792 5791 5790 5790 5790 5790 5790 5789
5794 5795 5796 5797 5798 5799 5800 5804 5803 5803 5804 5805 5805 5805 5805 5805 5805 5805 5805 5804 5804 5803 5803 5802 5801 5800 5799 5798 5797 5796 5795 5795 5794 5794 5793 5792 5791 5790 5789 5788 5787 5786 5785 5784 5784 5784 5784 5784 5784
5789 5791 5792 5793 5794 5795 5796 5801 5798 5799 5799 5800 5801 5801 5801 5800 5800 5800 5799 5799 5799 5799 5798 5797 5796 5795 5794 5792 5791 5791 5790 5789 5788 5788 5787 5786 5785 5784 5783 5782 5781 5780 5779 5778 5778 5778 5778 5778 5778